AKST,Max TemperatureF,Mean TemperatureF,Min TemperatureF,Max Dew PointF,MeanDew PointF,Min DewpointF,Max Humidity, Mean Humidity, Min Humidity, Max Sea Level PressureIn, Mean Sea Level PressureIn, Min Sea Level PressureIn, Max VisibilityMiles, Mean VisibilityMiles, Min VisibilityMiles, Max Wind SpeedMPH, Mean Wind SpeedMPH, Max Gust SpeedMPH,PrecipitationIn, CloudCover, Events, WindDirDegrees
2012-12-1,11,8,4,7,1,-6,0,0,0,30.06,30.01,29.97,9,6,2,15,9,18,T,8,Snow,314
2012-12-2,9,6,3,4,2,-1,0,0,0,30.28,30.13,30.00,9,9,6,16,7,18,T,8,Snow,344
2012-12-3,5,2,-2,2,-4,-6,87,0,76,30.38,30.31,30.28,9,8,5,13,4,15,0.01,8,Snow,293
2012-12-4,6,2,-3,1,-3,-8,0,0,0,30.40,30.35,30.32,9,8,3,16,7,20,0.01,8,Snow,309
2012-12-5,6,2,-2,1,-2,-9,0,0,0,30.54,30.44,30.33,9,6,1,24,12,28,0.01,8,Snow,37
2012-12-6,9,-1,-10,3,-4,-14,0,0,0,30.59,30.56,30.54,10,4,1,18,13,23,0.01,5,Snow,37
2012-12-7,-10,-14,-18,-15,-18,-19,0,0,0,30.57,30.53,30.50,10,10,7,13,7,16,T,2,,82
2012-12-8,-9,-12,-14,-15,-16,-19,0,0,0,30.51,30.37,30.20,10,8,2,17,11,20,0.00,3,,60
2012-12-9,-6,-9,-12,-11,-13,-15,0,0,0,30.19,30.06,29.98,10,7,2,18,12,24,0.00,3,Snow,53
2012-12-10,-9,-14,-19,-14,-18,-22,0,0,0,29.98,29.90,29.83,10,10,7,9,5,10,0.00,3,,101
2012-12-11,-3,-10,-17,-8,-13,-20,0,0,0,29.83,29.78,29.71,10,8,3,12,5,14,T,6,Snow,268
2012-12-12,-13,-20,-27,-19,-24,-30,0,0,0,29.72,29.55,29.47,10,9,2,12,5,14,T,2,Snow,288
2012-12-13,-14,-22,-30,-19,-29,-35,0,0,0,29.56,29.52,29.48,10,9,7,13,10,14,T,2,Snow,220
2012-12-14,-21,-26,-30,-27,-31,-34,0,0,0,29.69,29.62,29.57,10,9,4,13,6,14,T,4,Snow,204
2012-12-15,-19,-26,-32,-26,-30,-35,0,0,0,29.71,29.63,29.55,10,8,3,24,15,28,T,2,Snow,143
2012-12-16,-5,-13,-20,-10,-19,-26,0,0,0,29.81,29.64,29.55,10,9,2,18,10,20,T,5,Snow,242
2012-12-17,-6,-15,-24,-11,-19,-29,0,0,0,29.86,29.69,29.42,10,5,0,31,14,39,0.00,4,Snow,55
2012-12-18,0,-7,-13,-6,-11,-19,0,0,0,29.88,29.46,29.34,10,3,0,30,21,37,T,5,Snow,136
2012-12-19,-10,-19,-28,-15,-22,-33,0,0,0,30.44,30.17,29.87,10,7,2,26,15,30,0.00,1,Snow,251
2012-12-20,-16,-22,-28,-23,-31,-34,0,0,0,30.56,30.52,30.45,10,10,10,16,10,18,0.00,0,,159
2012-12-21,4,-6,-16,-3,-10,-22,0,0,0,30.46,30.35,30.28,10,10,9,22,17,25,0.00,5,,127
2012-12-22,3,-1,-5,-4,-6,-10,0,0,0,30.39,30.34,30.28,10,10,10,24,14,26,0.00,2,,112
2012-12-23,5,1,-3,0,-2,-5,0,0,0,30.39,30.37,30.34,10,7,2,36,22,40,0.00,0,Snow,77
2012-12-24,3,-4,-10,-3,-8,-15,0,0,0,30.34,30.23,30.14,10,4,1,33,23,43,0.00,1,Snow,59
2012-12-25,-9,-11,-13,-14,-15,-17,0,0,0,30.14,30.05,29.93,10,7,2,17,13,21,0.00,1,,57
2012-12-26,-6,-8,-10,-11,-12,-15,0,0,0,29.93,29.88,29.85,10,9,3,17,12,22,0.00,5,Snow,51
2012-12-27,-6,-8,-9,-11,-12,-13,0,0,0,30.09,29.98,29.89,10,8,2,22,14,26,0.00,2,Snow,44
2012-12-28,-6,-10,-14,-10,-13,-19,0,0,0,30.15,30.13,30.10,10,9,4,20,11,23,0.00,1,,48
2012-12-29,-11,-14,-17,-15,-18,-21,0,0,0,30.11,30.03,30.00,10,9,4,12,9,13,0.00,4,Snow,64
2012-12-30,-12,-15,-17,-17,-18,-21,0,0,0,30.05,30.02,29.98,10,7,2,21,13,25,T,2,Snow,52
2012-12-31,-6,-9,-12,-11,-14,-17,0,0,0,30.17,30.08,30.00,8,4,2,29,21,31,0.00,8,Snow,55